Detalii statie SOMALEX GHIMPATI [0000198E]

Toti senzorii

Date Temperatura solului [C]Precipitatii [mm]Voltaj baterie [mV]Leaf Wetness [Min]HC Air temperature [C]HC Relative humidity [%]Punctul de roua [C]
medieminmaxsumaultimatimpmedieminmaxmediemediemin
2019-10-21 23:00:00 15.7 15.7 15.8 0 6844 12.73 12.68 12.78 0 0 0
2019-10-21 23:10:00 15.8 15.8 15.8 0 6806 12.81 12.81 12.82 0 0 0
2019-10-21 23:20:00 15.7 15.6 15.8 0 6826 12.82 12.82 12.82 0 0 0
2019-10-21 23:30:00 15.6 15.6 15.6 0 6826 12.85 12.83 12.88 0 0 0
2019-10-21 23:40:00 15.6 15.6 15.6 0 6834 12.94 12.91 12.97 0 0 0
2019-10-21 23:50:00 15.5 15.5 15.6 0 6826 13.08 13.06 13.1 0 0 0
2019-10-22 00:00:00 15.4 15.4 15.5 0 6834 13.08 13.05 13.11 0 0 0
2019-10-22 00:10:00 15.5 15.5 15.5 0 6766 13 12.98 13.03 0 0 0
2019-10-22 00:20:00 15.4 15.3 15.5 0 6806 12.91 12.9 12.92 0 0 0
2019-10-22 00:30:00 15.4 15.4 15.5 0 6806 12.84 12.84 12.84 0 0 0
2019-10-22 00:40:00 15.3 15.3 15.3 0 6826 12.68 12.6 12.77 0 0 0
2019-10-22 00:50:00 15.3 15.3 15.4 0 6816 12.61 12.61 12.62 0 0 0
2019-10-22 01:00:00 15.3 15.3 15.4 0 6826 12.6 12.58 12.63 0 0 0
2019-10-22 01:10:00 15.4 15.4 15.5 0 6766 12.59 12.58 12.6 0 0 0
2019-10-22 01:20:00 15.4 15.4 15.4 0 6796 12.5 12.48 12.53 0 0 0
2019-10-22 01:30:00 15.2 15.2 15.3 0 6796 12.47 12.47 12.47 0 0 0
2019-10-22 01:40:00 15.2 15.2 15.3 0 6806 12.35 12.29 12.41 0 0 0
2019-10-22 01:50:00 15.2 15.1 15.3 0 6806 12.19 12.15 12.23 0 0 0
2019-10-22 02:00:00 15.2 15.1 15.3 0 6816 12.14 12.14 12.14 0 0 0
2019-10-22 02:10:00 15.1 15.1 15.2 0 6766 12.06 12.06 12.07 0 0 0
2019-10-22 02:20:00 15.1 15.1 15.2 0 6786 11.91 11.87 11.95 0 0 0
2019-10-22 02:30:00 15 14.9 15.1 0 6796 11.77 11.74 11.8 0 0 0
2019-10-22 02:40:00 15.1 15.1 15.1 0 6786 11.66 11.64 11.68 0 0 0
2019-10-22 02:50:00 15 15 15 0 6786 11.57 11.55 11.59 0 0 0
2019-10-22 03:00:00 15 15 15 0 6796 11.44 11.38 11.5 0 0 0
2019-10-22 03:10:00 14.9 14.9 15 0 6756 11.22 11.16 11.28 0 0 0
2019-10-22 03:20:00 15 15 15 0 6776 11.11 11.11 11.11 0 0 0
2019-10-22 03:30:00 14.9 14.9 15 0 6776 10.98 10.96 11.01 0 0 0
2019-10-22 03:40:00 14.9 14.8 15 0 6786 10.65 10.59 10.72 0 0 0
2019-10-22 03:50:00 14.9 14.9 14.9 0 6776 10.48 10.45 10.52 0 0 0
2019-10-22 04:00:00 14.8 14.7 14.9 0 6786 10.48 10.48 10.49 0 0 0
2019-10-22 04:10:00 14.9 14.9 14.9 0 6738 10.64 10.6 10.68 0 0 0
2019-10-22 04:20:00 14.7 14.6 14.9 0 6766 10.92 10.83 11.01 0 0 0
2019-10-22 04:30:00 14.7 14.7 14.8 0 6766 11.29 11.18 11.4 0 0 0
2019-10-22 04:40:00 14.7 14.7 14.7 0 6766 11.68 11.6 11.77 0 0 0
2019-10-22 04:50:00 14.7 14.7 14.8 0 6776 12.02 11.97 12.08 0 0 0
2019-10-22 05:00:00 14.6 14.6 14.6 0 6766 12.2 12.2 12.21 0 0 0
2019-10-22 05:10:00 14.6 14.6 14.6 0 6738 12.22 12.18 12.26 0 0 0
2019-10-22 05:20:00 14.6 14.5 14.8 0 6756 12.37 12.37 12.37 0 0 0
2019-10-22 05:30:00 14.8 14.8 14.8 0 6756 12.35 12.35 12.36 0 0 0
2019-10-22 05:40:00 14.6 14.6 14.6 0 6766 12.44 12.42 12.46 0 0 0
2019-10-22 05:50:00 14.7 14.6 14.8 0 6766 12.46 12.46 12.47 0 0 0
2019-10-22 06:00:00 14.8 14.8 14.8 0 6776 12.4 12.36 12.45 0 0 0
2019-10-22 06:10:00 14.6 14.6 14.6 0 6738 12.4 12.35 12.45 0 0 0
2019-10-22 06:20:00 14.6 14.6 14.6 0 6756 12.41 12.39 12.44 0 0 0
2019-10-22 06:30:00 14.6 14.6 14.7 0 6756 12.27 12.25 12.29 0 0 0
2019-10-22 06:40:00 14.6 14.6 14.6 0 6766 12.33 12.33 12.34 0 0 0
2019-10-22 06:50:00 14.7 14.6 14.8 0 6756 12.27 12.27 12.28 0 0 0